Tracking 18945 objects as of 20-Jan-2018
HD Live streaming from Space Station
objects crossing your sky now

FLOCK 2K 11

Track FLOCK 2K 11 now!
10-day predictions
FLOCK 2K 11 is classified as:


NORAD ID: 42894
Int'l Code: 2017-042BX
Perigee: 459.5 km
Apogee: 474.4 km
Inclination: 97.0 °
Period: 93.8 minutes
Semi major axis: 6837 km
RCS: Unknown
Launch date: July 14, 2017
Source: United States (US)
Launch site: TYURATAM MISSILE AND SPACE COMPLEX (TTMTR)
aabbcc
Your satellite tracking list
Your tracking list is empty




NASA's NSSDC Master Catalog

Two Line Element Set (TLE):
1 42894U 17042BX  18019.67540915 +.00007490 +00000-0 +21970-3 0  9999
2 42894 096.9940 283.8528 0010885 275.6543 084.3460 15.35384298028841
Source of the keplerian elements: AFSPC